When you browse on this site, cookies collect data to enhance your experience and personalize the content and advertising you see.
Visit our Privacy Policy to learn more. By continuing to use the site, you agree to this use of cookies and data.
  • In United Kingdom
  • List of Countries
  • For 7 days
  • Water Temperature
  • Weather Map
  • Weather Widgets
  • user-avatar
    Login

    Hourly Weather Potsdam

    Today, 22 August, Thursday

    Time Temperature Precipitation Wind Pressure Humidity
    00:00 +16°C° 0 mm 1 mps 767 mmHg 63%
    01:00 +16°C° 0 mm 1 mps 767 mmHg 63%
    02:00 +16°C° 0 mm 1 mps 767 mmHg 65%
    03:00 +15°C° 0 mm 1 mps 767 mmHg 67%
    04:00 +15°C° 0 mm 1 mps 766 mmHg 69%
    05:00 +16°C° 0 mm 1 mps 767 mmHg 68%
    06:00 +18°C° 0 mm 1 mps 767 mmHg 67%
    07:00 +19°C° 0 mm 1 mps 767 mmHg 66%
    08:00 +21°C° 0 mm 1 mps 767 mmHg 59%
    09:00 +23°C° 0 mm 1 mps 767 mmHg 51%
    10:00 +25°C° 0 mm 2 mps 767 mmHg 44%
    11:00 +25°C° 0 mm 2 mps 766 mmHg 40%
    12:00 +26°C° 0 mm 2 mps 766 mmHg 37%
    13:00 +27°C° 0 mm 2 mps 766 mmHg 33%
    14:00 +27°C° 0 mm 2 mps 766 mmHg 33%
    15:00 +27°C° 0 mm 2 mps 765 mmHg 33%
    16:00 +27°C° 0 mm 2 mps 765 mmHg 33%
    17:00 +26°C° 0 mm 2 mps 765 mmHg 38%
    18:00 +24°C° 0 mm 2 mps 765 mmHg 44%
    19:00 +23°C° 0 mm 2 mps 765 mmHg 50%
    20:00 +21°C° 0 mm 2 mps 765 mmHg 53%
    21:00 +20°C° 0 mm 2 mps 765 mmHg 57%
    22:00 +19°C° 0 mm 2 mps 766 mmHg 60%
    23:00 +18°C° 0 mm 2 mps 766 mmHg 64%

    Tomorrow, 23 August, Friday

    Time Temperature Precipitation Wind Pressure Humidity
    00:00 +18°C° 0 mm 2 mps 766 mmHg 68%
    01:00 +17°C° 0 mm 2 mps 766 mmHg 73%
    02:00 +17°C° 0 mm 2 mps 766 mmHg 75%
    03:00 +16°C° 0 mm 1 mps 765 mmHg 78%
    04:00 +16°C° 0 mm 1 mps 765 mmHg 80%
    05:00 +18°C° 0 mm 1 mps 765 mmHg 78%
    06:00 +19°C° 0 mm 1 mps 765 mmHg 76%
    07:00 +18°C° 0 mm 2 mps 765 mmHg 74%
    08:00 +20°C° 0 mm 2 mps 766 mmHg 67%
    09:00 +23°C° 0 mm 2 mps 766 mmHg 59%
    10:00 +25°C° 0 mm 2 mps 766 mmHg 52%
    11:00 +26°C° 0 mm 2 mps 765 mmHg 47%
    12:00 +27°C° 0 mm 2 mps 765 mmHg 42%
    13:00 +28°C° 0 mm 2 mps 765 mmHg 37%
    14:00 +28°C° 0 mm 2 mps 765 mmHg 36%
    15:00 +29°C° 0 mm 2 mps 764 mmHg 35%
    16:00 +29°C° 0 mm 2 mps 764 mmHg 34%
    17:00 +27°C° 0 mm 2 mps 764 mmHg 40%
    18:00 +25°C° 0 mm 2 mps 764 mmHg 45%
    19:00 +24°C° 0 mm 2 mps 764 mmHg 51%
    20:00 +23°C° 0 mm 2 mps 764 mmHg 54%
    21:00 +21°C° 0 mm 2 mps 764 mmHg 57%
    22:00 +20°C° 0 mm 2 mps 764 mmHg 61%
    23:00 +19°C° 0 mm 2 mps 764 mmHg 65%

    Day after tomorrow, 24 August, Saturday

    Time Temperature Precipitation Wind Pressure Humidity
    00:00 +19°C° 0 mm 2 mps 764 mmHg 70%
    01:00 +19°C° 0 mm 1 mps 764 mmHg 74%
    02:00 +19°C° 0 mm 1 mps 764 mmHg 75%
    03:00 +18°C° 0 mm 2 mps 764 mmHg 76%
    04:00 +18°C° 0 mm 2 mps 764 mmHg 78%
    05:00 +18°C° 0 mm 2 mps 764 mmHg 75%
    06:00 +19°C° 0 mm 2 mps 764 mmHg 72%
    07:00 +20°C° 0 mm 2 mps 764 mmHg 70%
    08:00 +22°C° 0 mm 3 mps 764 mmHg 63%
    09:00 +25°C° 0 mm 3 mps 764 mmHg 57%
    10:00 +27°C° 0 mm 4 mps 764 mmHg 51%
    11:00 +27°C° 0 mm 4 mps 763 mmHg 49%
    12:00 +28°C° 0 mm 3 mps 763 mmHg 47%
    13:00 +28°C° 0 mm 3 mps 763 mmHg 45%
    14:00 +28°C° 0 mm 3 mps 762 mmHg 45%
    15:00 +28°C° 0 mm 3 mps 762 mmHg 46%
    16:00 +28°C° 0 mm 3 mps 762 mmHg 46%
    17:00 +27°C° 0 mm 3 mps 762 mmHg 51%
    18:00 +26°C° 0 mm 3 mps 761 mmHg 56%
    19:00 +24°C° 0 mm 2 mps 761 mmHg 60%
    20:00 +24°C° 0 mm 2 mps 761 mmHg 64%
    21:00 +23°C° 0 mm 2 mps 762 mmHg 68%
    22:00 +21°C° 0 mm 2 mps 762 mmHg 71%
    23:00 +21°C° 0 mm 2 mps 761 mmHg 70%

    25 August, Sunday

    Time Temperature Precipitation Wind Pressure Humidity
    00:00 +21°C° 0 mm 3 mps 761 mmHg 69%
    01:00 +21°C° 0 mm 3 mps 761 mmHg 68%
    02:00 +21°C° 0 mm 2 mps 761 mmHg 69%
    03:00 +21°C° 0 mm 2 mps 761 mmHg 70%
    04:00 +21°C° 0 mm 2 mps 761 mmHg 70%
    05:00 +21°C° 0 mm 2 mps 760 mmHg 70%
    06:00 +21°C° 0 mm 3 mps 760 mmHg 70%
    07:00 +21°C° 0 mm 3 mps 760 mmHg 70%
    08:00 +22°C° 0 mm 3 mps 760 mmHg 65%
    09:00 +25°C° 0 mm 3 mps 760 mmHg 61%
    10:00 +27°C° 0 mm 2 mps 760 mmHg 57%
    11:00 +28°C° 0 mm 2 mps 760 mmHg 54%
    12:00 +29°C° 0 mm 2 mps 760 mmHg 51%
    13:00 +31°C° 0 mm 2 mps 760 mmHg 48%
    14:00 +31°C° 0 mm 2 mps 759 mmHg 48%
    15:00 +31°C° 0 mm 1 mps 759 mmHg 47%
    16:00 +31°C° 0 mm 1 mps 759 mmHg 47%
    17:00 +30°C° 0 mm 1 mps 759 mmHg 52%
    18:00 +28°C° 0 mm 1 mps 759 mmHg 58%
    19:00 +27°C° 0 mm 2 mps 759 mmHg 64%
    20:00 +26°C° 0 mm 2 mps 759 mmHg 69%
    21:00 +25°C° 0 mm 2 mps 760 mmHg 74%
    22:00 +24°C° 0 mm 2 mps 760 mmHg 80%
    23:00 +23°C° 0 mm 2 mps 760 mmHg 83%

    26 August, Monday

    Time Temperature Precipitation Wind Pressure Humidity
    00:00 +23°C° 0 mm 1 mps 760 mmHg 86%
    01:00 +22°C° 0 mm 1 mps 760 mmHg 88%
    02:00 +22°C° 0 mm 1 mps 760 mmHg 89%
    03:00 +22°C° 0 mm 1 mps 760 mmHg 91%
    04:00 +21°C° 0 mm 1 mps 760 mmHg 92%
    05:00 +22°C° 0 mm 1 mps 760 mmHg 89%
    06:00 +23°C° 0 mm 1 mps 760 mmHg 86%
    07:00 +23°C° 0 mm 2 mps 760 mmHg 83%
    08:00 +25°C° 0 mm 2 mps 760 mmHg 74%
    09:00 +27°C° 0 mm 2 mps 760 mmHg 65%
    10:00 +29°C° 0 mm 2 mps 761 mmHg 56%
    11:00 +30°C° 0 mm 2 mps 760 mmHg 51%
    12:00 +31°C° 0 mm 2 mps 760 mmHg 46%
    13:00 +32°C° 0 mm 2 mps 760 mmHg 41%
    14:00 +32°C° 0 mm 2 mps 760 mmHg 40%
    15:00 +32°C° 0 mm 2 mps 760 mmHg 39%
    16:00 +32°C° 0 mm 2 mps 760 mmHg 38%
    17:00 +30°C° 0 mm 2 mps 760 mmHg 43%
    18:00 +28°C° 0 mm 2 mps 760 mmHg 49%
    19:00 +27°C° 0 mm 2 mps 760 mmHg 54%
    20:00 +26°C° 0 mm 3 mps 760 mmHg 59%
    21:00 +25°C° 0 mm 3 mps 760 mmHg 64%
    22:00 +24°C° 0 mm 3 mps 760 mmHg 69%
    23:00 +22°C° 0 mm 3 mps 760 mmHg 74%

    27 August, Tuesday

    Time Temperature Precipitation Wind Pressure Humidity
    00:00 +23°C° 0 mm 2 mps 760 mmHg 79%
    01:00 +21°C° 0 mm 2 mps 760 mmHg 84%
    02:00 +21°C° 0 mm 2 mps 760 mmHg 85%
    03:00 +20°C° 0 mm 2 mps 760 mmHg 87%
    04:00 +21°C° 0 mm 1 mps 760 mmHg 88%
    05:00 +22°C° 0 mm 1 mps 760 mmHg 85%
    06:00 +22°C° 0 mm 1 mps 760 mmHg 82%
    07:00 +23°C° 0 mm 2 mps 760 mmHg 80%
    08:00 +25°C° 0 mm 2 mps 760 mmHg 72%
    09:00 +27°C° 0 mm 2 mps 760 mmHg 64%
    10:00 +28°C° 0 mm 2 mps 760 mmHg 57%
    11:00 +30°C° 0 mm 2 mps 759 mmHg 53%
    12:00 +31°C° 0 mm 2 mps 759 mmHg 49%
    13:00 +32°C° 0 mm 2 mps 759 mmHg 46%
    14:00 +32°C° 0 mm 2 mps 758 mmHg 46%
    15:00 +32°C° 0 mm 1 mps 758 mmHg 47%
    16:00 +32°C° 0 mm 1 mps 758 mmHg 47%
    17:00 +30°C° 0 mm 1 mps 757 mmHg 51%
    18:00 +29°C° 0 mm 2 mps 757 mmHg 56%
    19:00 +28°C° 0 mm 2 mps 757 mmHg 60%
    20:00 +27°C° 0.4 mm 2 mps 757 mmHg 67%
    21:00 +25°C° 0.4 mm 2 mps 757 mmHg 74%
    22:00 +24°C° 0.4 mm 3 mps 757 mmHg 80%
    23:00 +23°C° 0.3 mm 2 mps 757 mmHg 83%
    Show more